| time (UTC) | temp C | wind direction | speed KPH | gust KPH | rain 1hr cm | rain 24hr cm | rain mn cm | humidity % | barometer mb |
| 20260509155516 | 15 | 315 | 11.3 | 27.4 | 0.00 | 0.00 | 0.00 | 56 | 1004.6 |
| 20260509154516 | 15 | 270 | 14.5 | 32.2 | 0.00 | 0.00 | 0.00 | 55 | 1004.5 |
| 20260509153516 | 15 | 315 | 12.9 | 25.7 | 0.00 | 0.00 | 0.00 | 50 | 1004.4 |
| 20260509152516 | 15 | 293 | 11.3 | 22.5 | 0.00 | 0.00 | 0.00 | 46 | 1004.1 |
| 20260509151516 | 14 | 270 | 12.9 | 20.9 | 0.00 | 0.00 | 0.00 | 46 | 1004.0 |
| 20260509150516 | 14 | 270 | 9.7 | 17.7 | 0.00 | 0.00 | 0.00 | 48 | 1003.8 |
| 20260509145518 | 13 | 248 | 11.3 | 19.3 | 0.00 | 0.00 | 0.00 | 48 | 1004.0 |
| 20260509144516 | 13 | 225 | 6.4 | 16.1 | 0.00 | 0.00 | 0.00 | 52 | 1003.7 |
| 20260509143536 | 12 | 248 | 3.2 | 9.7 | 0.00 | 0.00 | 0.00 | 57 | 1003.8 |
| 20260509142516 | 12 | 248 | 3.2 | 8.0 | 0.00 | 0.00 | 0.00 | 52 | 1003.7 |
| 20260509141516 | 12 | 270 | 3.2 | 8.0 | 0.00 | 0.00 | 0.00 | 52 | 1003.7 |
| 20260509140516 | 12 | 248 | 3.2 | 11.3 | 0.00 | 0.00 | 0.00 | 49 | 1003.9 |
| 20260509135536 | 12 | 270 | 3.2 | 9.7 | 0.00 | 0.00 | 0.00 | 50 | 1004.3 |
| 20260509134516 | 12 | 293 | 3.2 | 9.7 | 0.00 | 0.00 | 0.00 | 50 | 1004.0 |
| 20260509133516 | 12 | 270 | 6.4 | 12.9 | 0.00 | 0.00 | 0.00 | 51 | 1003.9 |
| 20260509132536 | 12 | 270 | 9.7 | 20.9 | 0.00 | 0.00 | 0.00 | 51 | 1004.2 |
| 20260509131516 | 11 | 270 | 9.7 | 17.7 | 0.00 | 0.00 | 0.00 | 54 | 1004.6 |
| 20260509130516 | 11 | 270 | 8.0 | 16.1 | 0.00 | 0.00 | 0.00 | 55 | 1004.4 |
| 20260509125516 | 10 | 248 | 6.4 | 14.5 | 0.00 | 0.00 | 0.00 | 56 | 1003.8 |
| 20260509124515 | 10 | 270 | 6.4 | 12.9 | 0.00 | 0.00 | 0.00 | 60 | 1003.6 |
| 20260509123556 | 8 | 293 | 8.0 | 11.3 | 0.00 | 0.00 | 0.00 | 63 | 1003.6 |
| 20260509122516 | 8 | 270 | 4.8 | 9.7 | 0.00 | 0.00 | 0.00 | 65 | 1002.9 |
| 20260509121516 | 8 | 248 | 4.8 | 6.4 | 0.00 | 0.00 | 0.00 | 64 | 1002.6 |
| 20260509120556 | 8 | 248 | 4.8 | 11.3 | 0.00 | 0.00 | 0.00 | 63 | 1002.4 |
| 20260509115516 | 8 | 248 | 4.8 | 6.4 | 0.00 | 0.00 | 0.00 | 62 | 1002.3 |
| 20260509114516 | 8 | 248 | 3.2 | 4.8 | 0.00 | 0.00 | 0.00 | 60 | 1002.2 |
| 20260509113535 | 10 | 248 | 3.2 | 4.8 | 0.00 | 0.00 | 0.00 | 53 | 1002.2 |
| 20260509112515 | 10 | 248 | 3.2 | 4.8 | 0.00 | 0.00 | 0.00 | 50 | 1002.2 |
| 20260509111516 | 10 | 225 | 4.8 | 9.7 | 0.00 | 0.00 | 0.00 | 49 | 1002.3 |
| 20260509110515 | 10 | 248 | 3.2 | 6.4 | 0.00 | 0.00 | 0.00 | 49 | 1002.3 |
| 20260509105515 | 10 | 270 | 3.2 | 6.4 | 0.00 | 0.00 | 0.00 | 50 | 1002.4 |
| 20260509104515 | 10 | 248 | 3.2 | 4.8 | 0.00 | 0.00 | 0.00 | 50 | 1002.5 |
| 20260509103515 | 10 | 270 | 3.2 | 6.4 | 0.00 | 0.00 | 0.00 | 51 | 1002.7 |
| 20260509102535 | 10 | 248 | 3.2 | 6.4 | 0.00 | 0.00 | 0.00 | 51 | 1002.6 |
| 20260509101515 | 10 | 248 | 3.2 | 6.4 | 0.00 | 0.00 | 0.00 | 52 | 1002.5 |
| 20260509100515 | 10 | 248 | 4.8 | 9.7 | 0.00 | 0.00 | 0.00 | 52 | 1002.5 |
| 20260509095515 | 10 | 270 | 4.8 | 9.7 | 0.00 | 0.00 | 0.00 | 53 | 1002.5 |
| 20260509094516 | 10 | 270 | 4.8 | 11.3 | 0.00 | 0.00 | 0.00 | 53 | 1002.7 |
| 20260509093515 | 10 | 270 | 4.8 | 11.3 | 0.00 | 0.00 | 0.00 | 52 | 1002.6 |
| 20260509092515 | 10 | 270 | 4.8 | 9.7 | 0.00 | 0.00 | 0.00 | 54 | 1002.5 |
| 20260509091515 | 10 | 270 | 4.8 | 9.7 | 0.00 | 0.00 | 0.00 | 54 | 1002.6 |
| 20260509090515 | 10 | 270 | 4.8 | 9.7 | 0.00 | 0.00 | 0.00 | 54 | 1002.4 |
| 20260509085535 | 10 | 270 | 4.8 | 11.3 | 0.00 | 0.00 | 0.00 | 54 | 1002.6 |
| 20260509084515 | 10 | 270 | 6.4 | 11.3 | 0.00 | 0.00 | 0.00 | 54 | 1002.7 |
| 20260509083515 | 10 | 270 | 4.8 | 11.3 | 0.00 | 0.00 | 0.00 | 53 | 1002.5 |
| 20260509082515 | 11 | 293 | 4.8 | 9.7 | 0.00 | 0.00 | 0.00 | 50 | 1002.5 |
| 20260509081535 | 11 | 293 | 4.8 | 11.3 | 0.00 | 0.00 | 0.00 | 49 | 1002.5 |
| 20260509080515 | 12 | 293 | 4.8 | 9.7 | 0.00 | 0.00 | 0.00 | 49 | 1002.5 |
| 20260509075515 | 12 | 293 | 6.4 | 12.9 | 0.00 | 0.00 | 0.00 | 47 | 1002.4 |
| 20260509074515 | 12 | 270 | 4.8 | 12.9 | 0.00 | 0.00 | 0.00 | 46 | 1002.5 |
| 20260509073535 | 12 | 293 | 6.4 | 12.9 | 0.00 | 0.00 | 0.00 | 46 | 1002.7 |
| 20260509072517 | 13 | 293 | 8.0 | 16.1 | 0.00 | 0.00 | 0.00 | 46 | 1002.7 |
| 20260509071517 | 13 | 270 | 8.0 | 14.5 | 0.00 | 0.00 | 0.00 | 46 | 1002.7 |
| 20260509070517 | 13 | 293 | 8.0 | 14.5 | 0.00 | 0.00 | 0.00 | 46 | 1002.8 |
| 20260509065517 | 13 | 270 | 9.7 | 16.1 | 0.00 | 0.00 | 0.00 | 46 | 1002.7 |
| 20260509064517 | 13 | 270 | 9.7 | 17.7 | 0.00 | 0.00 | 0.00 | 46 | 1002.7 |
| 20260509063537 | 13 | 293 | 8.0 | 16.1 | 0.00 | 0.00 | 0.00 | 45 | 1002.7 |
| 20260509062517 | 13 | 270 | 6.4 | 14.5 | 0.00 | 0.00 | 0.00 | 45 | 1002.7 |
| 20260509061517 | 13 | 270 | 8.0 | 16.1 | 0.00 | 0.00 | 0.00 | 45 | 1002.6 |
| 20260509060537 | 14 | 270 | 8.0 | 17.7 | 0.00 | 0.00 | 0.00 | 45 | 1002.7 |
| 20260509055517 | 13 | 270 | 6.4 | 12.9 | 0.00 | 0.00 | 0.00 | 44 | 1002.6 |
| 20260509054517 | 14 | 270 | 4.8 | 11.3 | 0.00 | 0.00 | 0.00 | 44 | 1002.6 |
| 20260509053517 | 14 | 248 | 6.4 | 12.9 | 0.00 | 0.00 | 0.00 | 43 | 1002.6 |
| 20260509052517 | 14 | 248 | 6.4 | 11.3 | 0.00 | 0.00 | 0.00 | 43 | 1002.6 |
| 20260509051517 | 14 | 248 | 6.4 | 12.9 | 0.00 | 0.00 | 0.00 | 42 | 1002.7 |
| 20260509050517 | 14 | 248 | 4.8 | 6.4 | 0.00 | 0.00 | 0.00 | 42 | 1002.6 |
| 20260509045516 | 15 | 248 | 6.4 | 12.9 | 0.00 | 0.00 | 0.00 | 41 | 1002.5 |
| 20260509044515 | 15 | 248 | 6.4 | 9.7 | 0.00 | 0.00 | 0.00 | 41 | 1002.7 |
| 20260509043516 | 15 | 225 | 4.8 | 9.7 | 0.00 | 0.00 | 0.00 | 40 | 1002.7 |
| 20260509042516 | 15 | 248 | 6.4 | 12.9 | 0.00 | 0.00 | 0.00 | 40 | 1002.6 |
| 20260509041516 | 15 | 225 | 4.8 | 8.0 | 0.00 | 0.00 | 0.00 | 41 | 1002.5 |
| 20260509040536 | 15 | 225 | 4.8 | 8.0 | 0.00 | 0.00 | 0.00 | 39 | 1002.7 |
| 20260509035516 | 15 | 225 | 4.8 | 9.7 | 0.00 | 0.00 | 0.00 | 38 | 1002.8 |
| 20260509034515 | 15 | 225 | 3.2 | 8.0 | 0.00 | 0.00 | 0.00 | 39 | 1002.9 |
| 20260509033536 | 15 | 225 | 3.2 | 8.0 | 0.00 | 0.00 | 0.00 | 39 | 1002.9 |
| 20260509032516 | 15 | 225 | 1.6 | 4.8 | 0.00 | 0.00 | 0.00 | 38 | 1002.9 |
| 20260509031515 | 15 | 225 | 1.6 | 4.8 | 0.00 | 0.00 | 0.00 | 38 | 1003.0 |
| 20260509030516 | 15 | 225 | 1.6 | 4.8 | 0.00 | 0.00 | 0.00 | 37 | 1002.9 |
| 20260509025515 | 16 | 203 | 3.2 | 8.0 | 0.00 | 0.00 | 0.00 | 37 | 1003.1 |
| 20260509024535 | 16 | 225 | 3.2 | 6.4 | 0.00 | 0.00 | 0.00 | 35 | 1003.2 |
| 20260509023557 | 16 | 225 | 1.6 | 6.4 | 0.00 | 0.00 | 0.00 | 35 | 1003.1 |
| 20260509022515 | 16 | 0.0 | 4.8 | 0.00 | 0.00 | 0.00 | 34 | 1003.0 | |
| 20260509021515 | 16 | 0.0 | 4.8 | 0.00 | 0.00 | 0.00 | 33 | 1002.8 | |
| 20260509020516 | 16 | 0.0 | 1.6 | 0.00 | 0.00 | 0.00 | 34 | 1002.9 | |
| 20260509015536 | 16 | 225 | 1.6 | 3.2 | 0.00 | 0.00 | 0.00 | 34 | 1002.8 |
| 20260509014516 | 16 | 0.0 | 1.6 | 0.00 | 0.00 | 0.00 | 33 | 1002.7 | |
| 20260509013516 | 17 | 0.0 | 1.6 | 0.00 | 0.00 | 0.00 | 32 | 1002.6 | |
| 20260509012515 | 17 | 0.0 | 3.2 | 0.00 | 0.00 | 0.00 | 32 | 1002.8 | |
| 20260509011515 | 17 | 225 | 3.2 | 4.8 | 0.00 | 0.00 | 0.00 | 32 | 1002.7 |
| 20260509010515 | 18 | 225 | 3.2 | 4.8 | 0.00 | 0.00 | 0.00 | 31 | 1002.8 |
| 20260509005515 | 18 | 225 | 3.2 | 6.4 | 0.00 | 0.00 | 0.00 | 30 | 1002.9 |
| 20260509004517 | 18 | 225 | 1.6 | 3.2 | 0.00 | 0.00 | 0.00 | 30 | 1002.7 |
| 20260509003516 | 19 | 225 | 4.8 | 8.0 | 0.00 | 0.00 | 0.00 | 30 | 1002.9 |
| 20260509002515 | 20 | 248 | 6.4 | 12.9 | 0.00 | 0.00 | 0.00 | 26 | 1003.0 |
| 20260509001515 | 20 | 225 | 6.4 | 12.9 | 0.00 | 0.00 | 0.00 | 27 | 1003.0 |
| 20260509000516 | 20 | 225 | 8.0 | 17.7 | 0.00 | 0.00 | 0.00 | 26 | 1003.1 |
| 20260508235515 | 20 | 225 | 4.8 | 11.3 | 0.00 | 0.00 | 0.00 | 29 | 1003.0 |
| 20260508234535 | 20 | 248 | 6.4 | 17.7 | 0.00 | 0.00 | 0.00 | 28 | 1003.2 |
| 20260508233535 | 20 | 248 | 9.7 | 17.7 | 0.00 | 0.00 | 0.00 | 27 | 1003.2 |
| 20260508232515 | 19 | 248 | 8.0 | 17.7 | 0.00 | 0.00 | 0.00 | 28 | 1003.3 |
| 20260508231515 | 20 | 225 | 8.0 | 20.9 | 0.00 | 0.00 | 0.00 | 27 | 1003.4 |
| 20260508230515 | 20 | 248 | 11.3 | 24.1 | 0.00 | 0.00 | 0.00 | 26 | 1003.6 |
| 20260508225515 | 20 | 248 | 14.5 | 27.4 | 0.00 | 0.00 | 0.00 | 26 | 1003.6 |
| 20260508224515 | 20 | 248 | 12.9 | 20.9 | 0.00 | 0.00 | 0.00 | 25 | 1003.7 |
| 20260508223515 | 20 | 225 | 14.5 | 20.9 | 0.00 | 0.00 | 0.00 | 25 | 1003.7 |
| 20260508222515 | 20 | 270 | 14.5 | 24.1 | 0.00 | 0.00 | 0.00 | 24 | 1003.7 |
| 20260508221517 | 20 | 270 | 11.3 | 24.1 | 0.00 | 0.00 | 0.00 | 26 | 1003.9 |
| 20260508220517 | 20 | 293 | 11.3 | 24.1 | 0.00 | 0.00 | 0.00 | 25 | 1003.9 |
| 20260508215517 | 20 | 270 | 14.5 | 37.0 | 0.00 | 0.00 | 0.00 | 25 | 1004.1 |
| 20260508214539 | 20 | 248 | 14.5 | 33.8 | 0.00 | 0.00 | 0.00 | 24 | 1004.1 |
| 20260508213517 | 20 | 248 | 14.5 | 30.6 | 0.00 | 0.00 | 0.00 | 27 | 1004.3 |
| 20260508212517 | 20 | 270 | 12.9 | 22.5 | 0.00 | 0.00 | 0.00 | 24 | 1004.5 |
| 20260508211517 | 20 | 270 | 9.7 | 20.9 | 0.00 | 0.00 | 0.00 | 24 | 1004.5 |
| 20260508210517 | 20 | 248 | 11.3 | 19.3 | 0.00 | 0.00 | 0.00 | 29 | 1004.8 |
| 20260508205517 | 20 | 225 | 11.3 | 20.9 | 0.00 | 0.00 | 0.00 | 30 | 1005.0 |
| 20260508204517 | 20 | 225 | 14.5 | 25.7 | 0.00 | 0.00 | 0.00 | 26 | 1004.9 |
| 20260508203519 | 20 | 225 | 11.3 | 24.1 | 0.00 | 0.00 | 0.00 | 27 | 1005.4 |
| 20260508202517 | 19 | 248 | 11.3 | 24.1 | 0.00 | 0.00 | 0.00 | 25 | 1005.4 |
| 20260508201517 | 20 | 225 | 14.5 | 33.8 | 0.00 | 0.00 | 0.00 | 26 | 1005.6 |
| 20260508200517 | 19 | 225 | 9.7 | 22.5 | 0.00 | 0.00 | 0.00 | 26 | 1005.7 |
| 20260508195517 | 19 | 225 | 17.7 | 30.6 | 0.00 | 0.00 | 0.00 | 26 | 1006.1 |
| 20260508194517 | 19 | 248 | 14.5 | 29.0 | 0.00 | 0.00 | 0.00 | 29 | 1006.2 |
| 20260508193517 | 18 | 225 | 9.7 | 25.7 | 0.00 | 0.00 | 0.00 | 28 | 1006.3 |
| 20260508192519 | 18 | 225 | 11.3 | 24.1 | 0.00 | 0.00 | 0.00 | 30 | 1006.4 |
| 20260508191517 | 18 | 225 | 12.9 | 24.1 | 0.00 | 0.00 | 0.00 | 27 | 1006.6 |
| 20260508190517 | 18 | 225 | 12.9 | 32.2 | 0.00 | 0.00 | 0.00 | 28 | 1006.7 |
| 20260508185517 | 18 | 293 | 8.0 | 16.1 | 0.00 | 0.00 | 0.00 | 31 | 1007.0 |
| 20260508184517 | 18 | 248 | 12.9 | 29.0 | 0.00 | 0.00 | 0.00 | 27 | 1006.9 |
| 20260508183517 | 18 | 225 | 6.4 | 14.5 | 0.00 | 0.00 | 0.00 | 27 | 1007.0 |
| 20260508182517 | 18 | 225 | 12.9 | 27.4 | 0.00 | 0.00 | 0.00 | 30 | 1007.2 |
| 20260508181517 | 18 | 225 | 4.8 | 12.9 | 0.00 | 0.00 | 0.00 | 33 | 1007.3 |
| 20260508180517 | 18 | 225 | 11.3 | 27.4 | 0.00 | 0.00 | 0.00 | 32 | 1007.5 |
| 20260508175517 | 17 | 248 | 11.3 | 19.3 | 0.00 | 0.00 | 0.00 | 27 | 1007.4 |
| 20260508174517 | 17 | 225 | 9.7 | 22.5 | 0.00 | 0.00 | 0.00 | 31 | 1007.7 |
| 20260508173518 | 17 | 225 | 11.3 | 29.0 | 0.00 | 0.00 | 0.00 | 33 | 1007.8 |
| 20260508172517 | 17 | 225 | 14.5 | 22.5 | 0.00 | 0.00 | 0.00 | 30 | 1008.2 |
| 20260508171517 | 17 | 270 | 8.0 | 16.1 | 0.00 | 0.00 | 0.00 | 33 | 1008.3 |
| 20260508170538 | 17 | 225 | 11.3 | 19.3 | 0.00 | 0.00 | 0.00 | 29 | 1008.4 |
| 20260508165517 | 17 | 225 | 9.7 | 20.9 | 0.00 | 0.00 | 0.00 | 36 | 1008.7 |
| 20260508164516 | 17 | 225 | 6.4 | 20.9 | 0.00 | 0.00 | 0.00 | 32 | 1008.8 |
| 20260508163517 | 17 | 248 | 3.2 | 12.9 | 0.00 | 0.00 | 0.00 | 32 | 1008.9 |
| 20260508162518 | 16 | 203 | 6.4 | 14.5 | 0.00 | 0.00 | 0.00 | 32 | 1009.1 |
| 20260508161517 | 16 | 225 | 8.0 | 17.7 | 0.00 | 0.00 | 0.00 | 37 | 1009.2 |
| 20260508160517 | 16 | 248 | 8.0 | 14.5 | 0.00 | 0.00 | 0.00 | 34 | 1009.4 |